This is the latest recevied weather packets stored in our database for station/object IR4UCA-3. If no packets are shown the sender has not sent any weather packets the latest 1 day(s).
| Time | Temp. | Humidity | Pressure | Rain* | Wind** | Luminosity | Snow |
|---|---|---|---|---|---|---|---|
| 1777981612 | 17.22° C | 90% | 1012.4 hPa | 0 mm | 0.89 m/s, 59° | - | - |
| 1777981490 | 17.22° C | 90% | 1012.3 hPa | 0 mm | 1.34 m/s, 59° | - | - |
| 1777981371 | 17.22° C | 90% | 1012.4 hPa | 0 mm | 0.45 m/s, 59° | - | - |
| 1777981255 | 17.22° C | 90% | 1012.4 hPa | 0 mm | 0.89 m/s, 69° | - | - |
| 1777981130 | 16.67° C | 90% | 1012.3 hPa | 0 mm | 1.79 m/s, 76° | - | - |
| 1777981009 | 16.67° C | 90% | 1012.4 hPa | 0 mm | 1.79 m/s, 85° | - | - |
| 1777980888 | 16.67° C | 90% | 1012.3 hPa | 0 mm | 2.68 m/s, 68° | - | - |
| 1777980766 | 16.67° C | 90% | 1012.3 hPa | 0 mm | 2.68 m/s, 58° | - | - |
| 1777980652 | 16.67° C | 90% | 1012.3 hPa | 0 mm | 2.24 m/s, 73° | - | - |
| 1777980523 | 16.67° C | 90% | 1012.2 hPa | 0 mm | 2.68 m/s, 75° | - | - |
| 1777980403 | 16.67° C | 90% | 1012.3 hPa | 0 mm | 1.79 m/s, 72° | - | - |
| 1777980281 | 16.67° C | 90% | 1012.3 hPa | 0 mm | 1.79 m/s, 79° | - | - |
| 1777980159 | 16.67° C | 90% | 1012.2 hPa | 0 mm | 0.89 m/s, 62° | - | - |
| 1777980041 | 16.67° C | 90% | 1012.3 hPa | 0 mm | 1.79 m/s, 73° | - | - |
| 1777979917 | 16.67° C | 90% | 1012.2 hPa | 0 mm | 2.24 m/s, 72° | - | - |
| 1777979798 | 16.67° C | 90% | 1012.3 hPa | 0 mm | 2.24 m/s, 76° | - | - |
| 1777979678 | 16.67° C | 90% | 1012.3 hPa | 0 mm | 1.79 m/s, 69° | - | - |
| 1777979561 | 16.67° C | 91% | 1012.2 hPa | 0 mm | 2.68 m/s, 75° | - | - |
| 1777979435 | 16.67° C | 91% | 1012.4 hPa | 0 mm | 2.24 m/s, 66° | - | - |
| 1777979312 | 16.67° C | 91% | 1012.4 hPa | 0 mm | 2.24 m/s, 62° | - | - |
| 1777979192 | 16.67° C | 91% | 1012.4 hPa | 0 mm | 1.79 m/s, 62° | - | - |
| 1777979071 | 16.11° C | 91% | 1012.6 hPa | 0 mm | 1.34 m/s, 103° | - | - |
| 1777978950 | 16.11° C | 90% | 1012.5 hPa | 0.25 mm | 1.79 m/s, 59° | - | - |
| 1777978847 | 16.11° C | 90% | 1012.5 hPa | 0.25 mm | 1.79 m/s, 61° | - | - |
| 1777978710 | 16.11° C | 90% | 1012.5 hPa | 0.51 mm | 2.68 m/s, 62° | - | - |
* Rain latest hour (hover to see other rain measurements)
** Current wind speed in m/s (hover to see current wind gust speed)